User: anonymous   Login
Location: Girdwood
(60.9430°N, 149.1660°W)
Time: 06:09:07
(UTC-08:00)
Language:

Iridium 86 - Orbit

View from above orbital plane
View from above orbital plane
View from above satellite
View from above satellite

Ground track
Ground track

The orbit data is extracted from the following two-line orbital elements,

1 25528U 98066B   15108.14754694  .00000301  00000-0  10039-3 0  9996
2 25528 086.3937 320.5166 0002334 086.5676 273.5786 14.34220948865984
Epoch (UTC): 18 April 2015 03:32:28
Eccentricity: 0.0002334
inclination: 86.3937°
perigee height: 776 km
apogee height: 779 km
right ascension of ascending node: 320.5166°
argument of perigee: 86.5676°
revolutions per day: 14.34220948
mean anomaly at epoch: 273.5786°
orbit number at epoch: 86598

The dashed part of the orbit path shows where the satellite is in the earth's shadow,  

DLR